Time,TemperatureF,DewpointF,PressureIn,WindDirection,WindDirectionDegrees,WindSpeedMPH,WindSpeedGustMPH,Humidity,HourlyPrecipIn,Conditions,Clouds,dailyrainin,SolarRadiationWatts/m^2,SoftwareType,DateUTC
2013-12-20 00:11:00,27.0,10.0,-100.00,East,88,3.0,6.0,48,0.00,,,0.00,0.000000,,2013-12-20 08:11:00,
2013-12-20 00:22:00,27.0,10.0,-100.00,East,88,3.0,6.0,48,0.00,,,0.00,0.000000,,2013-12-20 08:22:00,
2013-12-20 00:52:00,27.0,10.0,-100.00,ESE,122,4.0,7.0,49,0.00,,,0.00,0.000000,,2013-12-20 08:52:00,
2013-12-20 01:03:00,27.0,10.0,-100.00,ESE,122,4.0,7.0,49,0.00,,,0.00,0.000000,,2013-12-20 09:03:00,
2013-12-20 01:11:00,27.0,10.0,-100.00,ESE,122,4.0,7.0,49,0.00,,,0.00,0.000000,,2013-12-20 09:11:00,
2013-12-20 01:22:00,27.0,10.0,-100.00,ESE,122,4.0,7.0,49,0.00,,,0.00,0.000000,,2013-12-20 09:22:00,
2013-12-20 01:53:00,26.0,11.0,-100.00,East,100,5.0,8.0,52,0.00,,,0.00,0.000000,,2013-12-20 09:53:00,
2013-12-20 02:03:00,26.0,11.0,-100.00,East,100,5.0,8.0,52,0.00,,,0.00,0.000000,,2013-12-20 10:03:00,
2013-12-20 02:12:00,26.0,11.0,-100.00,East,100,5.0,8.0,52,0.00,,,0.00,0.000000,,2013-12-20 10:12:00,
2013-12-20 02:23:00,26.0,11.0,-100.00,East,100,5.0,8.0,52,0.00,,,0.00,0.000000,,2013-12-20 10:23:00,
2013-12-20 02:53:00,27.0,12.0,-100.00,SE,127,4.0,9.0,52,0.00,,,0.00,0.000000,,2013-12-20 10:53:00,
2013-12-20 03:03:00,27.0,12.0,-100.00,SE,127,4.0,9.0,52,0.00,,,0.00,0.000000,,2013-12-20 11:03:00,
2013-12-20 03:12:00,27.0,12.0,-100.00,SE,127,4.0,9.0,52,0.00,,,0.00,0.000000,,2013-12-20 11:12:00,
2013-12-20 03:22:00,27.0,12.0,-100.00,SE,127,4.0,9.0,52,0.00,,,0.00,0.000000,,2013-12-20 11:22:00,
2013-12-20 03:53:00,27.0,12.0,-100.00,ESE,115,4.0,8.0,53,0.00,,,0.00,0.000000,,2013-12-20 11:53:00,
2013-12-20 04:02:00,27.0,12.0,-100.00,ESE,115,4.0,8.0,53,0.00,,,0.00,0.000000,,2013-12-20 12:02:00,
2013-12-20 04:12:00,27.0,12.0,-100.00,ESE,115,4.0,8.0,53,0.00,,,0.00,0.000000,,2013-12-20 12:12:00,
2013-12-20 04:23:00,27.0,12.0,-100.00,ESE,115,4.0,8.0,53,0.00,,,0.00,0.000000,,2013-12-20 12:23:00,
2013-12-20 04:52:00,27.0,13.0,-100.00,SE,143,4.0,9.0,56,0.00,,,0.00,0.000000,,2013-12-20 12:52:00,
2013-12-20 05:01:00,27.0,13.0,-100.00,SE,143,4.0,9.0,56,0.00,,,0.00,0.000000,,2013-12-20 13:01:00,
2013-12-20 05:11:00,27.0,13.0,-100.00,SE,143,4.0,9.0,56,0.00,,,0.00,0.000000,,2013-12-20 13:11:00,
2013-12-20 05:22:00,27.0,13.0,-100.00,SE,143,4.0,9.0,56,0.00,,,0.00,0.000000,,2013-12-20 13:22:00,
2013-12-20 05:53:00,23.0,13.0,-100.00,North,6,4.0,6.0,66,0.00,,,0.00,0.000000,,2013-12-20 13:53:00,
2013-12-20 06:02:00,23.0,13.0,-100.00,North,6,4.0,6.0,66,0.00,,,0.00,0.000000,,2013-12-20 14:02:00,
2013-12-20 06:11:00,23.0,13.0,-100.00,North,6,4.0,6.0,66,0.00,,,0.00,0.000000,,2013-12-20 14:11:00,
2013-12-20 06:22:00,23.0,13.0,-100.00,North,6,4.0,6.0,66,0.00,,,0.00,0.000000,,2013-12-20 14:22:00,
2013-12-20 06:52:00,24.0,13.0,-100.00,WNW,299,4.0,8.0,61,0.00,,,0.00,0.000000,,2013-12-20 14:52:00,
2013-12-20 07:02:00,24.0,13.0,-100.00,WNW,299,4.0,8.0,61,0.00,,,0.00,0.000000,,2013-12-20 15:02:00,
2013-12-20 07:11:00,24.0,13.0,-100.00,WNW,299,4.0,8.0,61,0.00,,,0.00,0.000000,,2013-12-20 15:11:00,
2013-12-20 07:22:00,24.0,13.0,-100.00,WNW,299,4.0,8.0,61,0.00,,,0.00,0.000000,,2013-12-20 15:22:00,
2013-12-20 07:54:00,23.0,14.0,-100.00,ENE,58,1.0,6.0,67,0.00,,,0.00,0.000000,,2013-12-20 15:54:00,
2013-12-20 08:03:00,23.0,14.0,-100.00,ENE,58,1.0,6.0,67,0.00,,,0.00,0.000000,,2013-12-20 16:03:00,
2013-12-20 08:13:00,23.0,14.0,-100.00,ENE,58,1.0,6.0,67,0.00,,,0.00,0.000000,,2013-12-20 16:13:00,
2013-12-20 08:23:00,23.0,14.0,-100.00,ENE,58,1.0,6.0,67,0.00,,,0.00,0.000000,,2013-12-20 16:23:00,
2013-12-20 09:12:00,22.0,18.0,-100.00,ENE,78,1.0,2.0,83,0.00,,,0.00,3.000000,,2013-12-20 17:12:00,
2013-12-20 09:22:00,22.0,18.0,-100.00,ENE,78,1.0,2.0,83,0.00,,,0.00,3.000000,,2013-12-20 17:22:00,
2013-12-20 09:52:00,22.0,21.0,-100.00,ESE,106,4.0,5.0,97,0.00,,,0.00,16.000000,,2013-12-20 17:52:00,
2013-12-20 10:02:00,22.0,21.0,-100.00,ESE,106,4.0,5.0,97,0.00,,,0.00,16.000000,,2013-12-20 18:02:00,
2013-12-20 10:12:00,22.0,21.0,-100.00,ESE,106,4.0,5.0,97,0.00,,,0.00,16.000000,,2013-12-20 18:12:00,
2013-12-20 10:22:00,22.0,21.0,-100.00,ESE,106,4.0,5.0,97,0.00,,,0.00,16.000000,,2013-12-20 18:22:00,
2013-12-20 10:52:00,24.0,24.0,-100.00,ESE,102,4.0,6.0,98,0.00,,,0.00,35.000000,,2013-12-20 18:52:00,
2013-12-20 11:02:00,24.0,24.0,-100.00,ESE,102,4.0,6.0,98,0.00,,,0.00,35.000000,,2013-12-20 19:02:00,
2013-12-20 11:12:00,24.0,24.0,-100.00,ESE,102,4.0,6.0,98,0.00,,,0.00,35.000000,,2013-12-20 19:12:00,
2013-12-20 11:21:00,24.0,24.0,-100.00,ESE,102,4.0,6.0,98,0.00,,,0.00,35.000000,,2013-12-20 19:21:00,
2013-12-20 11:52:00,27.0,26.0,-100.00,SE,132,5.0,8.0,97,0.00,,,0.00,46.000000,,2013-12-20 19:52:00,
2013-12-20 12:02:00,27.0,26.0,-100.00,SE,132,5.0,8.0,97,0.00,,,0.00,46.000000,,2013-12-20 20:02:00,
2013-12-20 12:11:00,27.0,26.0,-100.00,SE,132,5.0,8.0,97,0.00,,,0.00,46.000000,,2013-12-20 20:11:00,
2013-12-20 12:21:00,27.0,26.0,-100.00,SE,132,5.0,8.0,97,0.00,,,0.00,46.000000,,2013-12-20 20:21:00,
2013-12-20 12:52:00,29.0,29.0,-100.00,SSE,148,5.0,11.0,99,0.00,,,0.00,45.000000,,2013-12-20 20:52:00,
2013-12-20 13:02:00,29.0,29.0,-100.00,SSE,148,5.0,11.0,99,0.00,,,0.00,45.000000,,2013-12-20 21:02:00,
2013-12-20 13:12:00,29.0,29.0,-100.00,SSE,148,5.0,11.0,99,0.00,,,0.00,45.000000,,2013-12-20 21:12:00,
2013-12-20 13:22:00,29.0,29.0,-100.00,SSE,148,5.0,11.0,99,0.00,,,0.00,45.000000,,2013-12-20 21:22:00,
2013-12-20 13:53:00,33.0,31.0,-100.00,SSE,162,6.0,11.0,91,0.00,,,0.00,140.000000,,2013-12-20 21:53:00,
2013-12-20 14:03:00,33.0,31.0,-100.00,SSE,162,6.0,11.0,91,0.00,,,0.00,140.000000,,2013-12-20 22:03:00,
2013-12-20 14:13:00,33.0,31.0,-100.00,SSE,162,6.0,11.0,91,0.00,,,0.00,140.000000,,2013-12-20 22:13:00,
2013-12-20 14:23:00,33.0,31.0,-100.00,SSE,162,6.0,11.0,91,0.00,,,0.00,140.000000,,2013-12-20 22:23:00,
2013-12-20 14:53:00,32.0,29.0,-100.00,SW,234,4.0,10.0,90,0.02,,,0.02,74.000000,,2013-12-20 22:53:00,
2013-12-20 15:02:00,32.0,29.0,-100.00,SW,234,4.0,10.0,90,0.02,,,0.02,74.000000,,2013-12-20 23:02:00,
2013-12-20 15:12:00,32.0,29.0,-100.00,SW,234,4.0,10.0,90,0.02,,,0.02,74.000000,,2013-12-20 23:12:00,
2013-12-20 15:22:00,32.0,29.0,-100.00,SW,234,4.0,10.0,90,0.02,,,0.02,74.000000,,2013-12-20 23:22:00,
2013-12-20 15:53:00,30.0,28.0,-100.00,NW,319,6.0,10.0,91,0.01,,,0.03,65.000000,,2013-12-20 23:53:00,
2013-12-20 16:02:00,30.0,28.0,-100.00,NW,319,6.0,10.0,91,0.01,,,0.03,65.000000,,2013-12-21 00:02:00,
2013-12-20 16:11:00,30.0,28.0,-100.00,NW,319,6.0,10.0,91,0.01,,,0.03,65.000000,,2013-12-21 00:11:00,
2013-12-20 16:22:00,30.0,28.0,-100.00,NW,319,6.0,10.0,91,0.01,,,0.03,65.000000,,2013-12-21 00:22:00,
2013-12-20 16:52:00,27.0,26.0,-100.00,WNW,303,4.0,10.0,96,0.00,,,0.03,11.000000,,2013-12-21 00:52:00,
2013-12-20 17:02:00,27.0,26.0,-100.00,WNW,303,4.0,10.0,96,0.00,,,0.03,11.000000,,2013-12-21 01:02:00,
2013-12-20 17:11:00,27.0,26.0,-100.00,WNW,303,4.0,10.0,96,0.00,,,0.03,11.000000,,2013-12-21 01:11:00,
2013-12-20 17:22:00,27.0,26.0,-100.00,WNW,303,4.0,10.0,96,0.00,,,0.03,11.000000,,2013-12-21 01:22:00,
2013-12-20 17:52:00,24.0,24.0,-100.00,North,9,3.0,7.0,99,0.00,,,0.03,0.000000,,2013-12-21 01:52:00,
2013-12-20 18:01:00,24.0,24.0,-100.00,North,9,3.0,7.0,99,0.00,,,0.03,0.000000,,2013-12-21 02:01:00,
2013-12-20 18:11:00,24.0,24.0,-100.00,North,9,3.0,7.0,99,0.00,,,0.03,0.000000,,2013-12-21 02:11:00,
2013-12-20 18:21:00,24.0,24.0,-100.00,North,9,3.0,7.0,99,0.00,,,0.03,0.000000,,2013-12-21 02:21:00,
2013-12-20 18:52:00,22.0,22.0,-100.00,NNE,33,3.0,6.0,100,0.00,,,0.03,0.000000,,2013-12-21 02:52:00,
2013-12-20 19:01:00,22.0,22.0,-100.00,NNE,33,3.0,6.0,100,0.00,,,0.03,0.000000,,2013-12-21 03:01:00,
2013-12-20 19:11:00,22.0,22.0,-100.00,NNE,33,3.0,6.0,100,0.00,,,0.03,0.000000,,2013-12-21 03:11:00,
2013-12-20 19:21:00,22.0,22.0,-100.00,NNE,33,3.0,6.0,100,0.00,,,0.03,0.000000,,2013-12-21 03:21:00,
2013-12-20 19:53:00,21.0,21.0,-100.00,WNW,289,3.0,6.0,100,0.00,,,0.03,0.000000,,2013-12-21 03:53:00,
2013-12-20 20:03:00,21.0,21.0,-100.00,WNW,289,3.0,6.0,100,0.00,,,0.03,0.000000,,2013-12-21 04:03:00,
2013-12-20 20:12:00,21.0,21.0,-100.00,WNW,289,3.0,6.0,100,0.00,,,0.03,0.000000,,2013-12-21 04:12:00,
2013-12-20 20:22:00,21.0,21.0,-100.00,WNW,289,3.0,6.0,100,0.00,,,0.03,0.000000,,2013-12-21 04:22:00,
2013-12-20 20:52:00,22.0,22.0,-100.00,West,269,4.0,8.0,100,0.00,,,0.03,0.000000,,2013-12-21 04:52:00,
2013-12-20 21:02:00,22.0,22.0,-100.00,West,269,4.0,8.0,100,0.00,,,0.03,0.000000,,2013-12-21 05:02:00,
2013-12-20 21:12:00,22.0,22.0,-100.00,West,269,4.0,8.0,100,0.00,,,0.03,0.000000,,2013-12-21 05:12:00,
2013-12-20 21:22:00,22.0,22.0,-100.00,West,269,4.0,8.0,100,0.00,,,0.03,0.000000,,2013-12-21 05:22:00,
2013-12-20 21:52:00,22.0,22.0,-100.00,WNW,283,8.0,9.0,100,0.00,,,0.03,0.000000,,2013-12-21 05:52:00,
2013-12-20 22:02:00,22.0,22.0,-100.00,WNW,283,8.0,9.0,100,0.00,,,0.03,0.000000,,2013-12-21 06:02:00,
2013-12-20 22:12:00,22.0,22.0,-100.00,WNW,283,8.0,9.0,100,0.00,,,0.03,0.000000,,2013-12-21 06:12:00,
2013-12-20 22:21:00,22.0,22.0,-100.00,WNW,283,8.0,9.0,100,0.00,,,0.03,0.000000,,2013-12-21 06:21:00,
2013-12-20 22:52:00,24.0,23.0,-100.00,NW,307,11.0,14.0,95,0.00,,,0.03,0.000000,,2013-12-21 06:52:00,
2013-12-20 23:02:00,24.0,23.0,-100.00,NW,307,11.0,14.0,95,0.00,,,0.03,0.000000,,2013-12-21 07:02:00,
2013-12-20 23:11:00,24.0,23.0,-100.00,NW,307,11.0,14.0,95,0.00,,,0.03,0.000000,,2013-12-21 07:11:00,
2013-12-20 23:22:00,24.0,23.0,-100.00,NW,307,11.0,14.0,95,0.00,,,0.03,0.000000,,2013-12-21 07:22:00,
2013-12-20 23:53:00,25.0,23.0,-100.00,WNW,283,9.0,12.0,92,0.00,,,0.03,0.000000,,2013-12-21 07:53:00,